Location: ??????????
(44.4410°N, 135.7474°E)
Time: 16:47:45
(UTC+00:00)

Daily predictions for brighter satellites

Satellite Brightness Start Highest point End
(mag) Time Altitude Azimuth Time Altitude Azimuth Time Altitude Azimuth
SL-16 R/B 4.5 12:13:31 10° NW 12:16:20 19° W 12:16:20 19° W
Cosmos 2344 3.9 18:40:46 60° NNW 18:42:40 81° NE 18:53:46 10° SE
Cosmos 2263 Rocket 4.1 18:48:16 14° N 18:52:01 26° NE 18:56:43 10° ESE
USA 215 4.3 18:59:38 10° E 19:05:34 38° NNE 19:07:39 30° NNW
COSMOS 2455 3.4 19:15:45 39° SSE 19:17:37 54° ESE 19:23:29 10° NE
Cosmos 2227 Rocket 2.4 19:21:36 41° N 19:23:32 68° ENE 19:29:10 10° SE
Exosat Rocket 4.1 19:21:40 17° NNW 19:25:58 57° ENE 19:30:52 10° SE
Cosmos 773 Rocket 4.4 19:23:58 32° N 19:26:15 61° ENE 19:31:23 10° SSE
CZ-2C R/B 3.4 19:25:30 10° N 19:28:11 35° N 19:28:11 35° N
SL-08 R/B 4.5 19:26:09 24° S 19:30:15 88° E 19:36:47 10° N
Cosmos 1934 Rocket 4.2 19:24:46 10° S 19:30:49 69° E 19:36:59 10° NNE
SL-4 R/B 3.4 19:32:39 32° ENE 19:32:39 32° ENE 19:34:58 10° E
Meteor 2-16 Rocket 4.3 19:31:49 10° N 19:37:56 81° W 19:44:02 10° S
PAYLOAD A 3.9 19:35:04 10° N 19:40:21 76° WNW 19:40:52 69° WSW
USA 59 Rocket 1.7 19:45:29 17° NNE 19:45:29 17° NNE 19:46:14 10° NNE
Cosmos 836 Rocket 4.3 19:44:50 56° NW 19:45:55 77° WSW 19:51:07 10° SSE
Meteor 2-21 Rocket 4.4 19:43:02 10° NNW 19:49:02 58° W 19:54:58 10° S
Meteor 2-8 Rocket 4.3 19:48:09 31° SSW 19:51:08 66° W 19:57:18 10° N
Cosmos 1980 Rocket 2.4 19:47:13 17° SSW 19:51:35 69° ESE 19:57:09 10° NNE
SKYMED 2 4.2 19:47:51 10° SSE 19:52:05 56° ENE 19:56:21 10° N
Intercosmos 25 Rocket 3.4 19:55:47 37° NNE 19:56:48 56° E 19:59:58 10° SSE
Meteor 1-11 4.2 19:52:43 10° NNW 19:58:35 76° W 20:04:25 10° S
H-2A R/B 3.1 19:56:14 10° NNE 20:00:05 89° ESE 20:00:50 56° SSW
Cosmos 1697 Rocket 2.9 20:01:44 44° W 20:02:25 47° WNW 20:07:53 10° NNE
ISS -1.2 20:02:45 13° S 20:04:32 19° SE 20:06:58 10° E
Cosmos 1908 Rocket 4.1 20:00:28 10° S 20:04:43 58° E 20:09:02 10° NNE
Cosmos 1733 Rocket 4.3 20:08:46 26° NNW 20:08:46 26° NNW 20:11:01 10° N
FengYun 1-2 T 4.1 20:01:57 10° N 20:07:23 67° WNW 20:12:48 10° SSW
Cosmos 2297 Rocket 4.3 20:11:59 11° SSW 20:11:59 11° SSW 20:12:09 10° SSW
Cosmos 2292 Rocket 4.5 20:08:59 10° NNW 20:13:54 46° W 20:19:58 10° SSW
Cosmos 1378 Rocket 4.2 20:21:13 33° WSW 20:21:13 33° WSW 20:24:10 10° SSW
Cosmos 2221 Rocket 3.6 20:15:50 10° N 20:20:23 87° E 20:24:55 10° S
Cosmos 2219 3.4 20:17:34 10° NNW 20:23:19 75° ENE 20:28:58 10° SSE
Cosmos 1400 Rocket 3.4 20:21:23 10° S 20:25:05 56° E 20:28:50 10° NNE
IRS-1D 3.4 20:23:18 10° NNE 20:28:32 78° WNW 20:33:36 10° SSW
Cosmos 1025 Rocket 3.0 20:25:52 10° NNW 20:30:09 55° W 20:34:22 10° S
Cosmos 1939 Rocket 4.3 20:29:34 10° NNW 20:31:22 20° NW 20:31:22 20° NW
Cosmos 1503 Rocket 4.0 20:30:46 10° SW 20:35:50 57° WNW 20:41:01 10° NNE
Cosmos 2263 Rocket 2.3 20:30:44 10° NNW 20:36:16 55° WSW 20:41:44 10° S
NOSS 3-1 (C) 2.9 20:33:07 20° SW 20:36:21 62° NW 20:41:52 10° NNE
FALCON 9 R/B 3.2 20:36:13 10° S 20:36:21 10° S 20:36:31 10° S
GP-B 3.5 20:32:34 10° N 20:36:55 64° E 20:41:15 10° S
Helios 1A Rocket 4.2 20:37:54 10° SE 20:40:53 33° ENE 20:43:52 10° N
NOSS 3-1 (A) 3.4 20:38:45 10° SSW 20:43:12 60° ESE 20:48:32 10° NE
NOAA 12 4.2 20:40:05 10° N 20:45:12 51° WNW 20:50:18 10° SW
USA 215 3.4 20:41:30 10° ESE 20:48:05 82° NE 20:54:41 10° NW
COSMO-SKYMED 1 2.4 20:45:59 10° S 20:50:01 58° W 20:54:05 10° NNW
Cosmos 1300 Rocket 3.5 20:47:14 10° SSW 20:51:36 74° W 20:56:02 10° N
Cosmos 2369 3.6 20:46:30 10° SSW 20:52:10 74° WNW 20:57:51 10° NNE
Cosmos 2082 3.7 20:46:28 10° NNW 20:52:12 81° WSW 20:57:51 10° SSE
Cosmos 2346 Rocket 4.4 20:47:37 10° NNW 20:53:42 62° W 20:59:40 10° S
Cosmos 1869 2.9 20:54:25 10° S 20:57:58 82° WNW 21:01:31 10° N
Cosmos 1346 Rocket 2.9 20:57:02 10° N 21:00:42 68° ENE 21:04:21 10° SSE
SL-16 R/B 3.1 20:55:53 10° S 21:01:22 55° ESE 21:06:53 10° NNE
Cosmos 2173 Rocket 4.4 20:56:12 10° S 21:02:31 72° E 21:08:52 10° NNE
COSMOS 2455 3.6 20:58:57 12° WSW 21:03:49 32° NW 21:09:11 10° NNE
Cosmos 2227 Rocket 3.5 21:03:29 11° WNW 21:06:57 19° W 21:10:44 10° SW
USA 276 2.5 21:07:28 12° N 21:07:28 12° N 21:07:44 10° NNE
CZ-2C R/B 4.3 21:07:07 10° NW 21:07:26 10° WNW 21:07:26 10° WNW
SL-4 R/B 2.6 21:06:16 15° W 21:08:50 33° SW 21:12:14 10° SSE
BREEZE-M R/B 3.2 21:07:25 13° NW 21:09:17 25° N 21:11:25 10° ENE
ARIANE 5 R/B 4.5 21:05:12 10° NNE 21:09:43 33° E 21:14:12 10° SSE
Cosmos 2333 Rocket 3.2 21:06:18 10° S 21:11:51 52° ESE 21:17:25 10° NE
Cosmos 2100 Rocket 4.1 21:08:00 10° S 21:14:22 89° E 21:20:45 10° N
Cosmos 1812 2.9 21:15:00 10° SW 21:16:50 19° WNW 21:18:41 10° NNW
CBERS-1 4.1 21:13:06 10° NNE 21:18:14 87° ESE 21:23:21 10° SSW
SMAP 3.2 21:18:23 10° NNE 21:23:05 81° ESE 21:27:43 10° S
Thor Agena Rocket 4.1 21:23:48 10° NNE 21:29:03 66° ESE 21:34:16 10° S
Cosmos 372 Rocket 3.9 21:24:24 10° SSW 21:29:26 69° WNW 21:34:33 10° NNE
Cosmos 2322 Rocket 3.1 21:26:47 10° S 21:32:17 55° ESE 21:37:49 10° NNE
